Back to catalog

THOR ABLESTAR DEB

AliveLEO
NORAD 334·DEBRIS·🇺🇸 United States

Launched Jun 29, 1961 from Cape Canaveral Space Force Station

Loading…

Next Passes (next 24 hours)

TLE

FreshSource: Space-Track

Epoch: Sep 9, 2026, 17:23 UTC

1 00334U 61015DL  26252.72460115 -.00000022  00000-0  41016-4 0  9997
2 00334  66.9263 338.3151 0074854  37.4261 323.1999 13.91757676307827

Track THOR ABLESTAR DEB in real time with AllMySat

Download on the App Store